Location: Dötzum
(52.0808°N, 9.8063°E)
Time: 06:31:36
(UTC+00:00)

NOSS 3-4 (C) - Pass Details

Date: 27 May 2022
Orbit: 847 x 1365 km, 63.4° (Epoch: 14 June)

Event Time Altitude Azimuth Distance (km) Brightness Sun altitude
Rises 02:16:15 0° 312° (NW) 3,703 6.6 -7.0°
Reaches altitude 10° 02:18:44 10° 315° (NW) 2,818 6.0 -6.7°
Maximum altitude 02:25:26 72° 40° (NE) 1,179 4.2 -6.0°
Drops below altitude 10° 02:33:04 10° 125° (SE) 3,188 6.3 -5.2°
Sets 02:36:01 0° 127° (SE) 4,218 6.9 -4.9°
